Back to catalog

CZ-6A DEB

AliveSSO
NORAD 54984·DEBRIS·🇨🇳 China

Launched Nov 11, 2022 from Taiyuan Satellite Launch Center

Loading…

Next Passes (next 24 hours)

TLE

FreshSource: Space-Track

Epoch: Sep 13, 2026, 07:06 UTC

1 54984U 22151TZ  26256.29625358  .00000416  00000-0  38463-3 0  9990
2 54984  98.9455 189.7567 0219136 308.4338  49.7322 13.77739059191364

Track CZ-6A DEB in real time with AllMySat

Download on the App Store